Location: Ellerstadt
(49.4644°N, 8.2615°E)
Time: 01:08:10
(UTC+00:00)

IRIDIUM 100 - Pass Details

Date: 28 September 2021
Orbit: 776 x 779 km, 86.4° (Epoch: 19 October)

Event Time Altitude Azimuth Distance (km) Brightness Sun altitude
Exits shadow 02:29:10 13° 325° (NW) 2,140 ? -27.6°
Drops below altitude 10° 02:30:03 10° 333° (NNW) 2,341 ? -27.5°
Sets 02:33:11 0° 353° (N) 3,274 ? -27.0°
